| time (UTC) | temp F | wind direction | speed knots | gust knots | rain 1hr in | rain 24hr in | rain mn in | humidity % | barometer mb |
| 20260902124547 | 55 | 335 | 1.7 | 3.5 | 0.00 | 0.00 | 0.00 | 75 | 1012.6 |
| 20260902124027 | 55 | 269 | 0.9 | 2.6 | 0.00 | 0.00 | 0.00 | 74 | 1012.5 |
| 20260902123524 | 55 | 0 | 0.9 | 2.6 | 0.00 | 0.00 | 0.00 | 73 | 1012.5 |
| 20260902123045 | 56 | 271 | 0.9 | 2.6 | 0.00 | 0.00 | 0.00 | 73 | 1012.5 |
| 20260902122532 | 56 | 0 | 0.0 | 0.9 | 0.00 | 0.00 | 0.00 | 72 | 1012.4 |
| 20260902122025 | 55 | 0 | 0.0 | 2.6 | 0.00 | 0.00 | 0.00 | 70 | 1012.4 |
| 20260902121548 | 55 | 0 | 0.0 | 2.6 | 0.00 | 0.00 | 0.00 | 72 | 1012.5 |
| 20260902121026 | 54 | 129 | 0.0 | 1.7 | 0.00 | 0.00 | 0.00 | 73 | 1012.5 |
| 20260902120526 | 54 | 0 | 0.0 | 0.0 | 0.00 | 0.00 | 0.00 | 75 | 1012.7 |
| 20260902120043 | 54 | 0 | 0.0 | 0.0 | 0.00 | 0.00 | 0.00 | 75 | 1012.7 |
| 20260902115528 | 54 | 0 | 0.0 | 0.0 | 0.00 | 0.00 | 0.00 | 74 | 1012.7 |
| 20260902115029 | 54 | 0 | 0.0 | 0.0 | 0.00 | 0.00 | 0.00 | 74 | 1012.5 |
| 20260902114550 | 54 | 0 | 0.0 | 0.0 | 0.00 | 0.00 | 0.00 | 75 | 1012.5 |
| 20260902114026 | 54 | 0 | 0.0 | 0.0 | 0.00 | 0.00 | 0.00 | 75 | 1012.5 |
| 20260902113526 | 54 | 0 | 0.0 | 0.0 | 0.00 | 0.00 | 0.00 | 75 | 1012.5 |
| 20260902113053 | 54 | 0 | 0.0 | 0.9 | 0.00 | 0.00 | 0.00 | 75 | 1012.4 |
| 20260902112525 | 54 | 0 | 0.0 | 2.6 | 0.00 | 0.00 | 0.00 | 75 | 1012.4 |
| 20260902112026 | 55 | 0 | 0.0 | 2.6 | 0.00 | 0.00 | 0.00 | 75 | 1012.4 |
| 20260902111544 | 55 | 260 | 0.0 | 1.7 | 0.00 | 0.00 | 0.00 | 74 | 1012.4 |
| 20260902111026 | 55 | 0 | 0.0 | 0.0 | 0.00 | 0.00 | 0.00 | 73 | 1012.3 |
| 20260902110524 | 55 | 0 | 0.0 | 1.7 | 0.00 | 0.00 | 0.00 | 73 | 1012.4 |
| 20260902110045 | 55 | 0 | 0.0 | 2.6 | 0.00 | 0.00 | 0.00 | 74 | 1012.2 |
| 20260902105525 | 55 | 0 | 0.9 | 2.6 | 0.00 | 0.00 | 0.00 | 74 | 1012.4 |
| 20260902105028 | 55 | 104 | 0.9 | 1.7 | 0.00 | 0.00 | 0.00 | 75 | 1012.3 |
| 20260902104600 | 54 | 104 | 0.0 | 1.7 | 0.00 | 0.00 | 0.00 | 76 | 1012.2 |
| 20260902104024 | 54 | 0 | 0.0 | 1.7 | 0.00 | 0.00 | 0.00 | 76 | 1012.2 |
| 20260902103530 | 54 | 103 | 0.9 | 1.7 | 0.00 | 0.00 | 0.00 | 77 | 1012.2 |
| 20260902103042 | 54 | 0 | 0.0 | 1.7 | 0.00 | 0.00 | 0.00 | 76 | 1011.9 |
| 20260902102525 | 55 | 0 | 0.0 | 1.7 | 0.00 | 0.00 | 0.00 | 76 | 1011.9 |
| 20260902102025 | 55 | 103 | 0.9 | 1.7 | 0.00 | 0.00 | 0.00 | 76 | 1012.0 |
| 20260902101550 | 55 | 103 | 0.9 | 1.7 | 0.00 | 0.00 | 0.00 | 75 | 1012.0 |
| 20260902101025 | 55 | 105 | 0.9 | 2.6 | 0.00 | 0.00 | 0.00 | 75 | 1011.9 |
| 20260902100526 | 55 | 0 | 0.0 | 2.6 | 0.00 | 0.00 | 0.00 | 74 | 1011.9 |
| 20260902100043 | 55 | 105 | 0.9 | 2.6 | 0.00 | 0.00 | 0.00 | 75 | 1011.9 |
| 20260902095523 | 55 | 0 | 0.0 | 0.9 | 0.00 | 0.00 | 0.00 | 75 | 1011.8 |
| 20260902095025 | 55 | 0 | 0.0 | 0.0 | 0.00 | 0.00 | 0.00 | 75 | 1011.9 |
| 20260902094543 | 56 | 0 | 0.0 | 0.0 | 0.00 | 0.00 | 0.00 | 74 | 1012.0 |
| 20260902094024 | 56 | 0 | 0.0 | 0.9 | 0.00 | 0.00 | 0.00 | 73 | 1012.1 |
| 20260902093524 | 56 | 0 | 0.0 | 0.9 | 0.00 | 0.00 | 0.00 | 73 | 1012.0 |
| 20260902093048 | 56 | 0 | 0.0 | 0.9 | 0.00 | 0.00 | 0.00 | 73 | 1012.2 |
| 20260902092524 | 56 | 0 | 0.0 | 2.6 | 0.00 | 0.00 | 0.00 | 73 | 1012.2 |
| 20260902092025 | 56 | 0 | 0.0 | 2.6 | 0.00 | 0.00 | 0.00 | 73 | 1012.2 |
| 20260902091544 | 56 | 105 | 0.9 | 2.6 | 0.00 | 0.00 | 0.00 | 73 | 1012.5 |
| 20260902091024 | 57 | 0 | 0.0 | 0.9 | 0.00 | 0.00 | 0.00 | 73 | 1012.3 |
| 20260902090531 | 57 | 0 | 0.0 | 0.0 | 0.00 | 0.00 | 0.00 | 72 | 1012.2 |
| 20260902090043 | 57 | 0 | 0.0 | 1.7 | 0.00 | 0.00 | 0.00 | 72 | 1012.3 |
| 20260902085525 | 57 | 0 | 0.0 | 1.7 | 0.00 | 0.00 | 0.00 | 72 | 1012.4 |
| 20260902085024 | 58 | 323 | 0.0 | 1.7 | 0.00 | 0.00 | 0.00 | 71 | 1012.4 |
| 20260902084545 | 58 | 0 | 0.0 | 0.9 | 0.00 | 0.00 | 0.00 | 71 | 1012.5 |
| 20260902084024 | 58 | 323 | 0.0 | 1.7 | 0.00 | 0.00 | 0.00 | 71 | 1012.5 |
| 20260902083525 | 58 | 0 | 0.0 | 1.7 | 0.00 | 0.00 | 0.00 | 71 | 1012.5 |
| 20260902083112 | 58 | 323 | 0.0 | 1.7 | 0.00 | 0.00 | 0.00 | 70 | 1012.4 |
| 20260902082525 | 58 | 0 | 0.0 | 1.7 | 0.00 | 0.00 | 0.00 | 71 | 1012.4 |
| 20260902082023 | 58 | 0 | 0.0 | 1.7 | 0.00 | 0.00 | 0.00 | 71 | 1012.4 |
| 20260902081547 | 58 | 0 | 0.0 | 1.7 | 0.00 | 0.00 | 0.00 | 70 | 1012.2 |
| 20260902081025 | 58 | 0 | 0.0 | 1.7 | 0.00 | 0.00 | 0.00 | 70 | 1012.4 |
| 20260902080524 | 58 | 332 | 0.9 | 2.6 | 0.00 | 0.00 | 0.00 | 70 | 1012.2 |
| 20260902080045 | 58 | 0 | 0.0 | 3.5 | 0.00 | 0.00 | 0.00 | 71 | 1012.1 |
| 20260902075525 | 58 | 332 | 1.7 | 3.5 | 0.00 | 0.00 | 0.00 | 70 | 1012.2 |
| 20260902075026 | 58 | 1 | 0.9 | 3.5 | 0.00 | 0.00 | 0.00 | 71 | 1012.1 |
| 20260902074543 | 58 | 0 | 0.9 | 2.6 | 0.00 | 0.00 | 0.00 | 71 | 1012.2 |
| 20260902074025 | 59 | 0 | 0.0 | 2.6 | 0.00 | 0.00 | 0.00 | 70 | 1012.1 |
| 20260902073523 | 59 | 0 | 0.0 | 2.6 | 0.00 | 0.00 | 0.00 | 70 | 1012.0 |
| 20260902073054 | 59 | 12 | 0.9 | 2.6 | 0.00 | 0.00 | 0.00 | 70 | 1011.8 |
| 20260902072524 | 59 | 34 | 0.9 | 2.6 | 0.00 | 0.00 | 0.00 | 69 | 1011.9 |
| 20260902072023 | 60 | 0 | 0.0 | 2.6 | 0.00 | 0.00 | 0.00 | 69 | 1012.1 |
| 20260902071545 | 60 | 333 | 0.9 | 2.6 | 0.00 | 0.00 | 0.00 | 69 | 1012.1 |
| 20260902071026 | 60 | 168 | 0.0 | 1.7 | 0.00 | 0.00 | 0.00 | 67 | 1012.2 |
| 20260902070524 | 61 | 0 | 0.0 | 3.5 | 0.00 | 0.00 | 0.00 | 67 | 1012.5 |
| 20260902070048 | 61 | 0 | 0.0 | 3.5 | 0.00 | 0.00 | 0.00 | 67 | 1012.9 |
| 20260902065529 | 61 | 168 | 0.9 | 3.5 | 0.00 | 0.00 | 0.00 | 67 | 1012.8 |
| 20260902065023 | 62 | 338 | 0.9 | 2.6 | 0.00 | 0.00 | 0.00 | 67 | 1012.4 |
| 20260902064545 | 62 | 198 | 0.0 | 3.5 | 0.00 | 0.00 | 0.00 | 65 | 1012.5 |
| 20260902064023 | 62 | 0 | 0.9 | 5.2 | 0.00 | 0.00 | 0.00 | 66 | 1012.5 |
| 20260902063523 | 62 | 0 | 0.9 | 5.2 | 0.00 | 0.00 | 0.00 | 66 | 1012.8 |
| 20260902063046 | 62 | 186 | 0.9 | 2.6 | 0.00 | 0.00 | 0.00 | 66 | 1013.1 |
| 20260902062526 | 61 | 222 | 0.0 | 3.5 | 0.00 | 0.00 | 0.00 | 67 | 1012.8 |
| 20260902062024 | 61 | 0 | 0.9 | 3.5 | 0.00 | 0.00 | 0.00 | 68 | 1012.7 |
| 20260902061548 | 60 | 201 | 1.7 | 3.5 | 0.00 | 0.00 | 0.00 | 70 | 1012.7 |
| 20260902061024 | 60 | 230 | 1.7 | 3.5 | 0.00 | 0.00 | 0.00 | 70 | 1012.5 |
| 20260902060523 | 59 | 213 | 1.7 | 3.5 | 0.00 | 0.00 | 0.00 | 72 | 1012.5 |
| 20260902060104 | 59 | 179 | 1.7 | 4.3 | 0.00 | 0.00 | 0.00 | 72 | 1012.5 |
| 20260902055523 | 59 | 199 | 1.7 | 4.3 | 0.00 | 0.00 | 0.00 | 73 | 1012.4 |
| 20260902055025 | 59 | 188 | 0.9 | 3.5 | 0.00 | 0.00 | 0.00 | 72 | 1012.5 |
| 20260902054555 | 60 | 0 | 0.0 | 0.0 | 0.00 | 0.00 | 0.00 | 72 | 1012.4 |
| 20260902054033 | 60 | 0 | 0.0 | 0.0 | 0.00 | 0.00 | 0.00 | 71 | 1012.3 |
| 20260902053530 | 60 | 0 | 0.0 | 0.0 | 0.00 | 0.00 | 0.00 | 71 | 1012.2 |
| 20260902053057 | 60 | 0 | 0.0 | 0.0 | 0.00 | 0.00 | 0.00 | 71 | 1012.2 |
| 20260902052523 | 60 | 0 | 0.0 | 0.0 | 0.00 | 0.00 | 0.00 | 70 | 1012.3 |
| 20260902052023 | 61 | 0 | 0.0 | 0.0 | 0.00 | 0.00 | 0.00 | 69 | 1012.3 |
| 20260902051543 | 61 | 0 | 0.0 | 0.0 | 0.00 | 0.00 | 0.00 | 68 | 1012.2 |
| 20260902051025 | 62 | 0 | 0.0 | 0.0 | 0.00 | 0.00 | 0.00 | 68 | 1012.1 |
| 20260902050526 | 62 | 0 | 0.0 | 0.0 | 0.00 | 0.00 | 0.00 | 67 | 1012.1 |
| 20260902050059 | 62 | 0 | 0.0 | 0.0 | 0.00 | 0.00 | 0.00 | 67 | 1012.1 |
| 20260902045524 | 62 | 0 | 0.0 | 0.0 | 0.00 | 0.00 | 0.00 | 66 | 1012.2 |
| 20260902045024 | 63 | 0 | 0.0 | 1.7 | 0.00 | 0.00 | 0.00 | 65 | 1012.2 |
| 20260902044550 | 63 | 0 | 0.0 | 1.7 | 0.00 | 0.00 | 0.00 | 64 | 1012.2 |
| 20260902044029 | 63 | 238 | 0.9 | 1.7 | 0.00 | 0.00 | 0.00 | 63 | 1012.2 |
| 20260902043523 | 63 | 0 | 0.0 | 1.7 | 0.00 | 0.00 | 0.00 | 63 | 1012.2 |
| 20260902043053 | 64 | 0 | 0.0 | 2.6 | 0.00 | 0.00 | 0.00 | 63 | 1012.2 |
| 20260902042526 | 64 | 0 | 0.9 | 2.6 | 0.00 | 0.00 | 0.00 | 62 | 1012.2 |
| 20260902042025 | 64 | 272 | 0.9 | 2.6 | 0.00 | 0.00 | 0.00 | 61 | 1012.2 |
| 20260902041543 | 64 | 0 | 0.0 | 0.0 | 0.00 | 0.00 | 0.00 | 60 | 1012.1 |
| 20260902041025 | 64 | 0 | 0.0 | 0.0 | 0.00 | 0.00 | 0.00 | 59 | 1012.2 |
| 20260902040528 | 64 | 0 | 0.0 | 0.0 | 0.00 | 0.00 | 0.00 | 59 | 1012.3 |
| 20260902040055 | 65 | 0 | 0.0 | 0.0 | 0.00 | 0.00 | 0.00 | 60 | 1012.3 |
| 20260902035526 | 65 | 0 | 0.0 | 1.7 | 0.00 | 0.00 | 0.00 | 59 | 1012.2 |
| 20260902035029 | 66 | 0 | 0.0 | 1.7 | 0.00 | 0.00 | 0.00 | 58 | 1012.2 |
| 20260902034546 | 66 | 0 | 0.0 | 1.7 | 0.00 | 0.00 | 0.00 | 55 | 1012.1 |
| 20260902034028 | 66 | 0 | 0.0 | 1.7 | 0.00 | 0.00 | 0.00 | 57 | 1012.1 |
| 20260902033527 | 66 | 0 | 0.9 | 1.7 | 0.00 | 0.00 | 0.00 | 56 | 1012.0 |
| 20260902033046 | 66 | 241 | 0.0 | 0.9 | 0.00 | 0.00 | 0.00 | 55 | 1012.0 |
| 20260902032525 | 66 | 0 | 0.0 | 1.7 | 0.00 | 0.00 | 0.00 | 53 | 1011.9 |
| 20260902032027 | 67 | 0 | 0.0 | 1.7 | 0.00 | 0.00 | 0.00 | 52 | 1011.9 |
| 20260902031547 | 67 | 241 | 0.0 | 0.9 | 0.00 | 0.00 | 0.00 | 50 | 1011.7 |
| 20260902031029 | 68 | 0 | 0.0 | 0.0 | 0.00 | 0.00 | 0.00 | 49 | 1011.7 |
| 20260902030525 | 68 | 0 | 0.0 | 0.0 | 0.00 | 0.00 | 0.00 | 48 | 1011.7 |
| 20260902030053 | 69 | 0 | 0.0 | 0.0 | 0.00 | 0.00 | 0.00 | 48 | 1011.7 |
| 20260902025527 | 69 | 0 | 0.0 | 0.0 | 0.00 | 0.00 | 0.00 | 47 | 1011.5 |
| 20260902025027 | 69 | 0 | 0.0 | 1.7 | 0.00 | 0.00 | 0.00 | 47 | 1011.5 |
| 20260902024546 | 70 | 0 | 0.0 | 1.7 | 0.00 | 0.00 | 0.00 | 46 | 1011.5 |
| 20260902024026 | 70 | 241 | 0.0 | 1.7 | 0.00 | 0.00 | 0.00 | 47 | 1011.5 |
| 20260902023530 | 70 | 0 | 0.0 | 0.0 | 0.00 | 0.00 | 0.00 | 45 | 1011.6 |
| 20260902023048 | 70 | 0 | 0.0 | 0.0 | 0.00 | 0.00 | 0.00 | 45 | 1011.5 |
| 20260902022526 | 71 | 0 | 0.0 | 0.0 | 0.00 | 0.00 | 0.00 | 46 | 1011.5 |
| 20260902022033 | 71 | 0 | 0.0 | 0.0 | 0.00 | 0.00 | 0.00 | 46 | 1011.5 |
| 20260902021544 | 71 | 0 | 0.0 | 0.0 | 0.00 | 0.00 | 0.00 | 49 | 1011.5 |
| 20260902021025 | 71 | 0 | 0.0 | 0.0 | 0.00 | 0.00 | 0.00 | 46 | 1011.3 |
| 20260902020526 | 72 | 0 | 0.0 | 0.0 | 0.00 | 0.00 | 0.00 | 47 | 1011.3 |
| 20260902020043 | 73 | 0 | 0.0 | 0.0 | 0.00 | 0.00 | 0.00 | 46 | 1011.3 |
| 20260902015527 | 73 | 0 | 0.0 | 0.0 | 0.00 | 0.00 | 0.00 | 45 | 1011.3 |
| 20260902015026 | 74 | 0 | 0.0 | 0.0 | 0.00 | 0.00 | 0.00 | 45 | 1011.3 |
| 20260902014547 | 74 | 0 | 0.0 | 0.0 | 0.00 | 0.00 | 0.00 | 44 | 1011.3 |
| 20260902014031 | 75 | 0 | 0.0 | 0.0 | 0.00 | 0.00 | 0.00 | 43 | 1011.2 |
| 20260902013527 | 76 | 0 | 0.0 | 0.0 | 0.00 | 0.00 | 0.00 | 42 | 1011.1 |
| 20260902013048 | 77 | 0 | 0.0 | 0.0 | 0.00 | 0.00 | 0.00 | 41 | 1011.2 |
| 20260902012530 | 77 | 0 | 0.0 | 0.0 | 0.00 | 0.00 | 0.00 | 41 | 1011.2 |
| 20260902012023 | 78 | 0 | 0.0 | 0.0 | 0.00 | 0.00 | 0.00 | 41 | 1011.3 |
| 20260902011557 | 78 | 0 | 0.0 | 0.0 | 0.00 | 0.00 | 0.00 | 41 | 1011.3 |
| 20260902011024 | 79 | 0 | 0.0 | 0.0 | 0.00 | 0.00 | 0.00 | 41 | 1011.3 |
| 20260902010524 | 79 | 0 | 0.0 | 0.0 | 0.00 | 0.00 | 0.00 | 40 | 1011.3 |
| 20260902010043 | 79 | 0 | 0.0 | 0.9 | 0.00 | 0.00 | 0.00 | 40 | 1011.3 |
| 20260902005527 | 78 | 0 | 0.0 | 0.9 | 0.00 | 0.00 | 0.00 | 42 | 1011.3 |
| 20260902005025 | 78 | 0 | 0.0 | 1.7 | 0.00 | 0.00 | 0.00 | 44 | 1011.4 |
| 20260902004547 | 78 | 0 | 0.0 | 1.7 | 0.00 | 0.00 | 0.00 | 43 | 1011.4 |
| 20260902004032 | 78 | 0 | 0.0 | 2.6 | 0.00 | 0.00 | 0.00 | 42 | 1011.3 |
| 20260902003523 | 78 | 0 | 0.9 | 3.5 | 0.00 | 0.00 | 0.00 | 42 | 1011.3 |
| 20260902003044 | 78 | 238 | 0.9 | 3.5 | 0.00 | 0.00 | 0.00 | 42 | 1011.3 |
| 20260902002523 | 78 | 0 | 0.9 | 1.7 | 0.00 | 0.00 | 0.00 | 41 | 1011.2 |
| 20260902002023 | 78 | 0 | 0.0 | 2.6 | 0.00 | 0.00 | 0.00 | 43 | 1011.3 |
| 20260902001549 | 78 | 0 | 0.0 | 3.5 | 0.00 | 0.00 | 0.00 | 45 | 1011.4 |
| 20260902001025 | 77 | 0 | 0.0 | 3.5 | 0.00 | 0.00 | 0.00 | 44 | 1011.4 |
| 20260902000525 | 77 | 262 | 1.7 | 5.2 | 0.00 | 0.00 | 0.00 | 40 | 1011.5 |
| 20260902000044 | 78 | 354 | 0.9 | 5.2 | 0.00 | 0.00 | 0.00 | 41 | 1011.4 |
| 20260901235527 | 79 | 269 | 0.9 | 7.0 | 0.00 | 0.00 | 0.00 | 42 | 1011.4 |
| 20260901235025 | 79 | 323 | 1.7 | 7.0 | 0.00 | 0.00 | 0.00 | 39 | 1011.5 |
| 20260901234548 | 80 | 266 | 2.6 | 7.0 | 0.00 | 0.00 | 0.00 | 40 | 1011.4 |
| 20260901234024 | 80 | 294 | 0.9 | 3.5 | 0.00 | 0.00 | 0.00 | 37 | 1011.6 |
| 20260901233528 | 80 | 252 | 1.7 | 4.3 | 0.00 | 0.00 | 0.00 | 39 | 1011.6 |
| 20260901233050 | 80 | 244 | 1.7 | 4.3 | 0.00 | 0.00 | 0.00 | 38 | 1011.6 |
| 20260901232524 | 80 | 198 | 0.9 | 5.2 | 0.00 | 0.00 | 0.00 | 36 | 1011.6 |
| 20260901232024 | 80 | 233 | 0.9 | 6.1 | 0.00 | 0.00 | 0.00 | 37 | 1011.7 |
| 20260901231607 | 80 | 230 | 1.7 | 6.1 | 0.00 | 0.00 | 0.00 | 35 | 1011.6 |
| 20260901231025 | 80 | 226 | 1.7 | 6.1 | 0.00 | 0.00 | 0.00 | 34 | 1011.6 |
| 20260901230526 | 80 | 193 | 0.9 | 3.5 | 0.00 | 0.00 | 0.00 | 35 | 1011.7 |
| 20260901230056 | 80 | 227 | 0.9 | 3.5 | 0.00 | 0.00 | 0.00 | 35 | 1011.8 |
| 20260901225524 | 80 | 228 | 0.0 | 3.5 | 0.00 | 0.00 | 0.00 | 37 | 1011.8 |
| 20260901225024 | 81 | 225 | 0.9 | 5.2 | 0.00 | 0.00 | 0.00 | 33 | 1011.6 |
| 20260901224546 | 81 | 176 | 2.6 | 5.2 | 0.00 | 0.00 | 0.00 | 34 | 1011.7 |
| 20260901224024 | 81 | 233 | 1.7 | 4.3 | 0.00 | 0.00 | 0.00 | 38 | 1011.6 |
| 20260901223524 | 81 | 220 | 1.7 | 4.3 | 0.00 | 0.00 | 0.00 | 33 | 1011.6 |
| 20260901223047 | 81 | 187 | 0.9 | 7.0 | 0.00 | 0.00 | 0.00 | 35 | 1011.6 |
| 20260901222525 | 82 | 235 | 3.5 | 7.0 | 0.00 | 0.00 | 0.00 | 31 | 1011.6 |
| 20260901222024 | 82 | 213 | 1.7 | 7.0 | 0.00 | 0.00 | 0.00 | 34 | 1011.6 |
| 20260901221608 | 83 | 233 | 1.7 | 7.0 | 0.00 | 0.00 | 0.00 | 32 | 1011.6 |
| 20260901221028 | 83 | 185 | 0.9 | 6.1 | 0.00 | 0.00 | 0.00 | 31 | 1011.6 |
| 20260901220528 | 84 | 173 | 2.6 | 6.1 | 0.00 | 0.00 | 0.00 | 29 | 1011.6 |
| 20260901220115 | 84 | 0 | 0.9 | 5.2 | 0.00 | 0.00 | 0.00 | 30 | 1011.6 |
| 20260901215527 | 84 | 204 | 2.6 | 5.2 | 0.00 | 0.00 | 0.00 | 30 | 1011.7 |
| 20260901215025 | 84 | 0 | 0.0 | 6.1 | 0.00 | 0.00 | 0.00 | 28 | 1011.7 |
| 20260901214550 | 84 | 218 | 0.9 | 6.1 | 0.00 | 0.00 | 0.00 | 29 | 1011.8 |
| 20260901214028 | 84 | 186 | 1.7 | 5.2 | 0.00 | 0.00 | 0.00 | 33 | 1011.9 |
| 20260901213525 | 84 | 163 | 0.9 | 2.6 | 0.00 | 0.00 | 0.00 | 35 | 1011.9 |
| 20260901213105 | 84 | 0 | 0.9 | 3.5 | 0.00 | 0.00 | 0.00 | 37 | 1011.9 |
| 20260901212527 | 83 | 0 | 0.9 | 3.5 | 0.00 | 0.00 | 0.00 | 35 | 1012.1 |
| 20260901212029 | 83 | 0 | 0.9 | 5.2 | 0.00 | 0.00 | 0.00 | 32 | 1012.0 |
| 20260901211546 | 83 | 0 | 2.6 | 5.2 | 0.00 | 0.00 | 0.00 | 31 | 1012.0 |
| 20260901211027 | 82 | 279 | 2.6 | 7.0 | 0.00 | 0.00 | 0.00 | 30 | 1012.1 |
| 20260901210530 | 82 | 203 | 0.9 | 7.0 | 0.00 | 0.00 | 0.00 | 33 | 1012.2 |
| 20260901210044 | 82 | 168 | 2.6 | 7.0 | 0.00 | 0.00 | 0.00 | 32 | 1012.2 |
| 20260901205527 | 82 | 193 | 0.9 | 3.5 | 0.00 | 0.00 | 0.00 | 30 | 1012.1 |
| 20260901205029 | 82 | 326 | 0.9 | 4.3 | 0.00 | 0.00 | 0.00 | 32 | 1012.3 |
| 20260901204601 | 82 | 47 | 1.7 | 4.3 | 0.00 | 0.00 | 0.00 | 30 | 1012.5 |
| 20260901204027 | 82 | 0 | 0.0 | 2.6 | 0.00 | 0.00 | 0.00 | 32 | 1012.6 |
| 20260901203528 | 81 | 193 | 0.9 | 6.1 | 0.00 | 0.00 | 0.00 | 32 | 1012.5 |
| 20260901203045 | 81 | 131 | 0.9 | 6.1 | 0.00 | 0.00 | 0.00 | 35 | 1012.7 |
| 20260901202527 | 81 | 200 | 1.7 | 4.3 | 0.00 | 0.00 | 0.00 | 34 | 1012.8 |
| 20260901202028 | 81 | 290 | 1.7 | 4.3 | 0.00 | 0.00 | 0.00 | 33 | 1012.9 |
| 20260901201546 | 81 | 37 | 0.9 | 4.3 | 0.00 | 0.00 | 0.00 | 37 | 1013.0 |
| 20260901201027 | 81 | 75 | 0.9 | 4.3 | 0.00 | 0.00 | 0.00 | 37 | 1013.0 |
| 20260901200530 | 81 | 124 | 0.9 | 4.3 | 0.00 | 0.00 | 0.00 | 34 | 1013.1 |
| 20260901200114 | 81 | 210 | 0.9 | 4.3 | 0.00 | 0.00 | 0.00 | 36 | 1013.1 |
| 20260901195524 | 80 | 214 | 0.9 | 4.3 | 0.00 | 0.00 | 0.00 | 35 | 1013.1 |
| 20260901195026 | 80 | 217 | 2.6 | 4.3 | 0.00 | 0.00 | 0.00 | 34 | 1013.1 |
| 20260901194606 | 80 | 202 | 1.7 | 7.0 | 0.00 | 0.00 | 0.00 | 37 | 1013.1 |
| 20260901194030 | 80 | 0 | 1.7 | 7.0 | 0.00 | 0.00 | 0.00 | 35 | 1013.1 |
| 20260901193528 | 80 | 161 | 1.7 | 4.3 | 0.00 | 0.00 | 0.00 | 44 | 1013.2 |
| 20260901193050 | 80 | 148 | 1.7 | 5.2 | 0.00 | 0.00 | 0.00 | 39 | 1013.3 |
| 20260901192530 | 79 | 261 | 2.6 | 5.2 | 0.00 | 0.00 | 0.00 | 41 | 1013.2 |
| 20260901192026 | 79 | 197 | 0.9 | 5.2 | 0.00 | 0.00 | 0.00 | 41 | 1013.3 |
| 20260901191628 | 79 | 249 | 1.7 | 4.3 | 0.00 | 0.00 | 0.00 | 40 | 1013.4 |
| 20260901191025 | 79 | 185 | 1.7 | 6.1 | 0.00 | 0.00 | 0.00 | 39 | 1013.5 |
| 20260901190525 | 79 | 184 | 1.7 | 6.1 | 0.00 | 0.00 | 0.00 | 40 | 1013.6 |
| 20260901190057 | 79 | 207 | 2.6 | 5.2 | 0.00 | 0.00 | 0.00 | 43 | 1013.6 |
| 20260901185528 | 78 | 265 | 1.7 | 5.2 | 0.00 | 0.00 | 0.00 | 45 | 1013.7 |
| 20260901185025 | 78 | 271 | 1.7 | 6.1 | 0.00 | 0.00 | 0.00 | 44 | 1013.7 |
| 20260901184544 | 78 | 233 | 2.6 | 6.1 | 0.00 | 0.00 | 0.00 | 47 | 1013.8 |
| 20260901184025 | 78 | 288 | 1.7 | 6.1 | 0.00 | 0.00 | 0.00 | 49 | 1013.7 |
| 20260901183528 | 77 | 265 | 0.9 | 3.5 | 0.00 | 0.00 | 0.00 | 45 | 1013.9 |
| 20260901183056 | 77 | 0 | 0.9 | 3.5 | 0.00 | 0.00 | 0.00 | 47 | 1014.0 |
| 20260901182525 | 77 | 262 | 0.9 | 4.3 | 0.00 | 0.00 | 0.00 | 45 | 1013.9 |
| 20260901182028 | 77 | 274 | 0.9 | 5.2 | 0.00 | 0.00 | 0.00 | 43 | 1014.0 |
| 20260901181600 | 78 | 191 | 1.7 | 7.8 | 0.00 | 0.00 | 0.00 | 42 | 1014.0 |
| 20260901181027 | 78 | 195 | 2.6 | 7.8 | 0.00 | 0.00 | 0.00 | 44 | 1014.1 |
| 20260901180525 | 78 | 221 | 3.5 | 7.8 | 0.00 | 0.00 | 0.00 | 44 | 1014.2 |
| 20260901180045 | 78 | 0 | 3.5 | 7.8 | 0.00 | 0.00 | 0.00 | 43 | 1014.3 |
| 20260901175530 | 78 | 194 | 2.6 | 7.8 | 0.00 | 0.00 | 0.00 | 46 | 1014.3 |
| 20260901175024 | 78 | 146 | 3.5 | 9.6 | 0.00 | 0.00 | 0.00 | 43 | 1014.4 |
| 20260901174546 | 78 | 110 | 4.3 | 9.6 | 0.00 | 0.00 | 0.00 | 46 | 1014.4 |
| 20260901174027 | 77 | 207 | 2.6 | 9.6 | 0.00 | 0.00 | 0.00 | 45 | 1014.3 |
| 20260901173532 | 76 | 231 | 4.3 | 9.6 | 0.00 | 0.00 | 0.00 | 47 | 1014.4 |
| 20260901173052 | 76 | 155 | 4.3 | 8.7 | 0.00 | 0.00 | 0.00 | 46 | 1014.6 |
| 20260901172525 | 75 | 141 | 3.5 | 7.8 | 0.00 | 0.00 | 0.00 | 49 | 1014.6 |
| 20260901172026 | 74 | 131 | 1.7 | 6.1 | 0.00 | 0.00 | 0.00 | 53 | 1014.6 |
| 20260901171558 | 73 | 203 | 0.9 | 3.5 | 0.00 | 0.00 | 0.00 | 47 | 1014.6 |
| 20260901171024 | 72 | 241 | 0.9 | 2.6 | 0.00 | 0.00 | 0.00 | 46 | 1014.7 |
| 20260901170526 | 72 | 278 | 0.9 | 3.5 | 0.00 | 0.00 | 0.00 | 48 | 1014.7 |
| 20260901170057 | 72 | 229 | 0.9 | 3.5 | 0.00 | 0.00 | 0.00 | 46 | 1014.8 |
| 20260901165525 | 71 | 0 | 0.9 | 3.5 | 0.00 | 0.00 | 0.00 | 45 | 1014.7 |
| 20260901165024 | 71 | 198 | 0.9 | 3.5 | 0.00 | 0.00 | 0.00 | 45 | 1014.9 |
| 20260901164546 | 71 | 191 | 0.9 | 3.5 | 0.00 | 0.00 | 0.00 | 43 | 1014.8 |
| 20260901164027 | 71 | 185 | 0.9 | 3.5 | 0.00 | 0.00 | 0.00 | 47 | 1015.0 |
| 20260901163527 | 71 | 225 | 0.0 | 3.5 | 0.00 | 0.00 | 0.00 | 46 | 1015.0 |
| 20260901163054 | 71 | 0 | 0.9 | 4.3 | 0.00 | 0.00 | 0.00 | 41 | 1014.9 |
| 20260901162525 | 71 | 233 | 0.9 | 4.3 | 0.00 | 0.00 | 0.00 | 46 | 1015.0 |
| 20260901162029 | 70 | 161 | 0.9 | 4.3 | 0.00 | 0.00 | 0.00 | 44 | 1015.0 |
| 20260901161552 | 69 | 204 | 1.7 | 4.3 | 0.00 | 0.00 | 0.00 | 42 | 1015.1 |
| 20260901161026 | 69 | 198 | 1.7 | 4.3 | 0.00 | 0.00 | 0.00 | 42 | 1015.0 |
| 20260901160525 | 69 | 224 | 1.7 | 4.3 | 0.00 | 0.00 | 0.00 | 42 | 1015.0 |
| 20260901160105 | 68 | 206 | 0.9 | 3.5 | 0.00 | 0.00 | 0.00 | 43 | 1015.1 |
| 20260901155527 | 68 | 197 | 0.9 | 3.5 | 0.00 | 0.00 | 0.00 | 45 | 1015.2 |
| 20260901155028 | 67 | 255 | 1.7 | 3.5 | 0.00 | 0.00 | 0.00 | 43 | 1015.2 |
| 20260901154545 | 67 | 260 | 0.0 | 1.7 | 0.00 | 0.00 | 0.00 | 42 | 1015.1 |
| 20260901154025 | 67 | 0 | 0.0 | 1.7 | 0.00 | 0.00 | 0.00 | 43 | 1015.2 |
| 20260901153526 | 66 | 0 | 0.0 | 1.7 | 0.00 | 0.00 | 0.00 | 42 | 1015.3 |
| 20260901153058 | 65 | 0 | 0.0 | 0.0 | 0.00 | 0.00 | 0.00 | 49 | 1015.4 |
| 20260901152529 | 64 | 0 | 0.0 | 0.9 | 0.00 | 0.00 | 0.00 | 53 | 1015.3 |
| 20260901152025 | 64 | 0 | 0.0 | 0.9 | 0.00 | 0.00 | 0.00 | 52 | 1015.3 |
| 20260901151546 | 63 | 203 | 0.0 | 1.7 | 0.00 | 0.00 | 0.00 | 53 | 1015.4 |
| 20260901151026 | 62 | 0 | 0.0 | 2.6 | 0.00 | 0.00 | 0.00 | 59 | 1015.3 |
| 20260901150530 | 62 | 203 | 0.9 | 2.6 | 0.00 | 0.00 | 0.00 | 59 | 1015.3 |
| 20260901150058 | 61 | 203 | 1.7 | 2.6 | 0.00 | 0.00 | 0.00 | 54 | 1015.2 |
| 20260901145527 | 61 | 191 | 0.9 | 2.6 | 0.00 | 0.00 | 0.00 | 56 | 1015.2 |
| 20260901145027 | 60 | 0 | 0.0 | 2.6 | 0.00 | 0.00 | 0.00 | 61 | 1015.2 |
| 20260901144549 | 59 | 0 | 0.0 | 2.6 | 0.00 | 0.00 | 0.00 | 59 | 1015.4 |
| 20260901144025 | 59 | 211 | 0.9 | 3.5 | 0.00 | 0.00 | 0.00 | 60 | 1015.5 |
| 20260901143527 | 58 | 212 | 0.9 | 3.5 | 0.00 | 0.00 | 0.00 | 58 | 1015.4 |
| 20260901143107 | 58 | 275 | 1.7 | 2.6 | 0.00 | 0.00 | 0.00 | 58 | 1015.4 |
| 20260901142525 | 57 | 262 | 0.9 | 2.6 | 0.00 | 0.00 | 0.00 | 59 | 1015.4 |
| 20260901142024 | 56 | 272 | 0.0 | 4.3 | 0.00 | 0.00 | 0.00 | 62 | 1015.4 |
| 20260901141545 | 56 | 0 | 0.0 | 4.3 | 0.00 | 0.00 | 0.00 | 64 | 1015.3 |
| 20260901141025 | 55 | 307 | 0.0 | 2.6 | 0.00 | 0.00 | 0.00 | 68 | 1015.3 |
| 20260901140526 | 54 | 0 | 0.0 | 3.5 | 0.00 | 0.00 | 0.00 | 67 | 1015.2 |
| 20260901140128 | 53 | 291 | 0.9 | 3.5 | 0.00 | 0.00 | 0.00 | 65 | 1015.2 |
| 20260901135529 | 53 | 259 | 1.7 | 3.5 | 0.00 | 0.00 | 0.00 | 65 | 1015.2 |
| 20260901135028 | 52 | 0 | 0.0 | 1.7 | 0.00 | 0.00 | 0.00 | 66 | 1015.2 |
| 20260901134549 | 52 | 0 | 0.0 | 2.6 | 0.00 | 0.00 | 0.00 | 66 | 1015.2 |
| 20260901134031 | 51 | 0 | 0.9 | 2.6 | 0.00 | 0.00 | 0.00 | 66 | 1015.1 |
| 20260901133527 | 51 | 271 | 0.0 | 1.7 | 0.00 | 0.00 | 0.00 | 68 | 1015.0 |
| 20260901133046 | 51 | 271 | 0.0 | 1.7 | 0.00 | 0.00 | 0.00 | 70 | 1015.1 |
| 20260901132529 | 51 | 295 | 0.0 | 1.7 | 0.00 | 0.00 | 0.00 | 73 | 1015.0 |
| 20260901132031 | 51 | 0 | 0.0 | 2.6 | 0.00 | 0.00 | 0.00 | 72 | 1014.8 |
| 20260901131546 | 51 | 0 | 0.0 | 2.6 | 0.00 | 0.00 | 0.00 | 72 | 1014.9 |
| 20260901131028 | 51 | 295 | 0.9 | 2.6 | 0.00 | 0.00 | 0.00 | 69 | 1015.0 |
| 20260901130530 | 51 | 0 | 0.0 | 1.7 | 0.00 | 0.00 | 0.00 | 69 | 1015.0 |
| 20260901130051 | 51 | 0 | 0.9 | 2.6 | 0.00 | 0.00 | 0.00 | 69 | 1014.8 |
| 20260901125524 | 51 | 0 | 0.0 | 2.6 | 0.00 | 0.00 | 0.00 | 71 | 1014.8 |
| 20260901125025 | 51 | 293 | 0.0 | 2.6 | 0.00 | 0.00 | 0.00 | 70 | 1014.9 |